Airfield :
LOGIN :

Register | Disclaimer

   EN    FR    IT 

 










Legend :    VFR   Marginal VFR   IFR   Intensive IFR   Very Intensive IFR
Visi :
Ceiling :
>= 8 km
>= 3000ft
5 to 8 km
1000 to 3000 ft
1500m to 5 km
500 to 1000 ft
800 to 1500m
200 to 500 ft
< 800m
< 200 ft
Symbols :   Thunderstorms  Fog  Heavy snow  Heavy precipitations  Wind > 20 kt
SIGMETs :     Misc.  Thunderstorms  Icing  Turbulence  Mountain Waves  Volcanic Ashes






- Airport Elevation : 53 ft
- IATA code : AGP


LEMG - Malaga

CURRENT METAR :
  • 181930Z 11007KT 080V140 9999 BKN016 17/15 Q1020 NOSIG

EXPIRED METARs :
  • 181900Z 11007KT 9999 FEW015 17/15 Q1020 NOSIG
  • 181830Z 10008KT 9999 FEW015 17/15 Q1019 NOSIG
  • 181800Z 09009KT 9999 FEW015 18/15 Q1019 NOSIG
  • 181730Z 09010KT CAVOK 18/15 Q1018 NOSIG
  • 181700Z 10013KT CAVOK 19/15 Q1018 NOSIG

TAF TAF LEMG
Valid from the 18 at 18:00 until the 19 at 18:00 UTC


181700Z 1818/1918 VRB03KT CAVOK TX22/1913Z TN12/1823Z
PROB40
TEMPO 1822/1908 3000 BR BKN010
BECMG 1910/1912 13010KT



MET'MAP, your aeronautical weather chart ! - Copyright ORBIFLY December 2007 - Disclaimer

ORBIFLY MET'MAP TEAM :

Programming & Development : Alexandra Zaïnal
Concept & original design : Baudouin d'Aumeries
Assistance for programming : Marc-Olivier Méhu
Technical & hardware support : Manuel Goepfert

Contact : metmap@orbifly.com




SOURCES & CREDITS :

   NOAA